,,,PA_Meas_PMT16A,,PR_Meas_QMR101_102,,RH_Meas_QMH101,,SR_Meas_QMS101,,TA_Meas_QMH101,,GenWind,,GenWind,
date,time,status,PA,status,PR,status,RH,status,SR,status,TA,status,DirAvg,status,SpdAvg,
2011-05-19, 00:00:05,VALID,1001.35,VALID,0,VALID,93.2111,VALID,0,VALID,23.4493,VALID,44,VALID,0,
2011-05-19, 00:01:05,VALID,1001.37,VALID,0,VALID,93.2111,VALID,0,VALID,23.4298,VALID,44,VALID,0,
2011-05-19, 00:02:05,VALID,1001.34,VALID,0,VALID,93.2111,VALID,0,VALID,23.4298,VALID,58,VALID,0.6375,
2011-05-19, 00:03:05,VALID,1001.38,VALID,0,VALID,93.2187,VALID,0,VALID,23.4298,VALID,71,VALID,0.650391,
2011-05-19, 00:04:05,VALID,1001.36,VALID,0,VALID,93.234,VALID,0,VALID,23.428,VALID,71,VALID,0.301172,
2011-05-19, 00:05:05,VALID,1001.36,VALID,0,VALID,93.234,VALID,0,VALID,23.4085,VALID,71,VALID,0,
2011-05-19, 00:06:05,VALID,1001.33,VALID,0,VALID,93.2416,VALID,0,VALID,23.4085,VALID,71,VALID,0,
2011-05-19, 00:07:05,VALID,1001.34,VALID,0,VALID,93.234,VALID,0,VALID,23.4298,VALID,71,VALID,0,
2011-05-19, 00:08:05,VALID,1001.3,VALID,0,VALID,93.2416,VALID,0,VALID,23.4298,VALID,71,VALID,0,
2011-05-19, 00:09:05,VALID,1001.29,VALID,0,VALID,93.2416,VALID,0,VALID,23.428,VALID,71,VALID,0,
2011-05-19, 00:10:05,VALID,1001.23,VALID,0,VALID,93.2263,VALID,0,VALID,23.428,VALID,71,VALID,0,
2011-05-19, 00:11:05,VALID,1001.23,VALID,0,VALID,93.2263,VALID,0,VALID,23.4298,VALID,71,VALID,0,
2011-05-19, 00:12:05,VALID,1001.26,VALID,0,VALID,93.234,VALID,0,VALID,23.4298,VALID,71,VALID,0,
2011-05-19, 00:13:05,VALID,1001.23,VALID,0,VALID,93.2111,VALID,0,VALID,23.4103,VALID,71,VALID,0,
2011-05-19, 00:14:05,VALID,1001.23,VALID,0,VALID,93.2111,VALID,0,VALID,23.3695,VALID,71,VALID,0,
2011-05-19, 00:15:05,VALID,1001.27,VALID,0,VALID,93.234,VALID,0,VALID,23.389,VALID,71,VALID,0,
2011-05-19, 00:16:05,VALID,1001.28,VALID,0,VALID,93.2187,VALID,0,VALID,23.4298,VALID,71,VALID,0,
2011-05-19, 00:17:05,VALID,1001.29,VALID,0,VALID,93.2492,VALID,0,VALID,23.4298,VALID,71,VALID,0,
2011-05-19, 00:18:05,VALID,1001.27,VALID,0,VALID,93.2568,VALID,0,VALID,23.428,VALID,71,VALID,0,
2011-05-19, 00:19:05,VALID,1001.29,VALID,0,VALID,93.2492,VALID,0,VALID,23.4493,VALID,71,VALID,0,
2011-05-19, 00:20:05,VALID,1001.28,VALID,0,VALID,93.2721,VALID,0,VALID,23.4688,VALID,71,VALID,0,
2011-05-19, 00:21:05,VALID,1001.29,VALID,0,VALID,93.2797,VALID,0,VALID,23.4475,VALID,71,VALID,0,
2011-05-19, 00:22:05,VALID,1001.29,VALID,0,VALID,93.295,VALID,0,VALID,23.4884,VALID,102,VALID,0,
2011-05-19, 00:23:05,VALID,1001.3,VALID,0,VALID,93.3026,VALID,0,VALID,23.4688,VALID,123,VALID,0.666406,
2011-05-19, 00:24:05,VALID,1001.3,VALID,0,VALID,93.3103,VALID,0,VALID,23.4688,VALID,123,VALID,0.794141,
2011-05-19, 00:25:05,VALID,1001.28,VALID,0,VALID,93.3026,VALID,0,VALID,23.4475,VALID,123,VALID,0.842188,
2011-05-19, 00:26:05,VALID,1001.26,VALID,0,VALID,93.3331,VALID,0,VALID,23.4103,VALID,123,VALID,0.873438,
2011-05-19, 00:27:05,VALID,1001.25,VALID,0,VALID,93.3103,VALID,0,VALID,23.3908,VALID,123,VALID,0.993359,
2011-05-19, 00:28:05,VALID,1001.25,VALID,0,VALID,93.3103,VALID,0,VALID,23.3713,VALID,123,VALID,1.15781,
2011-05-19, 00:29:05,VALID,1001.23,VALID,0,VALID,93.2874,VALID,0,VALID,23.389,VALID,123,VALID,0.954297,
2011-05-19, 00:30:05,VALID,1001.2,VALID,0,VALID,93.3026,VALID,0,VALID,23.4085,VALID,109,VALID,0.939062,
2011-05-19, 00:31:05,VALID,1001.25,VALID,0,VALID,93.2721,VALID,0,VALID,23.428,VALID,109,VALID,0.946875,
2011-05-19, 00:32:05,VALID,1001.21,VALID,0,VALID,93.2568,VALID,0,VALID,23.428,VALID,109,VALID,0.38125,
2011-05-19, 00:33:05,VALID,1001.24,VALID,0,VALID,93.2187,VALID,0,VALID,23.428,VALID,109,VALID,0.173047,
2011-05-19, 00:34:05,VALID,1001.22,VALID,0,VALID,93.2111,VALID,0,VALID,23.3872,VALID,109,VALID,0.130859,
2011-05-19, 00:35:05,VALID,1001.21,VALID,0,VALID,93.1958,VALID,0,VALID,23.3677,VALID,109,VALID,0.152734,
2011-05-19, 00:36:05,VALID,1001.18,VALID,0,VALID,93.1653,VALID,0,VALID,23.3482,VALID,109,VALID,0,
2011-05-19, 00:37:05,VALID,1001.16,VALID,0,VALID,93.15,VALID,0,VALID,23.3092,VALID,109,VALID,0,
2011-05-19, 00:38:05,VALID,1001.19,VALID,0,VALID,93.1348,VALID,0,VALID,23.2897,VALID,109,VALID,0.189844,
2011-05-19, 00:39:05,VALID,1001.15,VALID,0,VALID,93.1271,VALID,0,VALID,23.2897,VALID,109,VALID,0,
2011-05-19, 00:40:05,VALID,1001.15,VALID,0,VALID,93.1348,VALID,0,VALID,23.311,VALID,109,VALID,0,
2011-05-19, 00:41:05,VALID,1001.16,VALID,0,VALID,93.1119,VALID,0.112286,VALID,23.3305,VALID,7,VALID,0.617188,
2011-05-19, 00:42:05,VALID,1001.16,VALID,0,VALID,93.1043,VALID,0,VALID,23.2897,VALID,342,VALID,0.84375,
2011-05-19, 00:43:05,VALID,1001.15,VALID,0,VALID,93.1271,VALID,0,VALID,23.2897,VALID,332,VALID,0.797656,
2011-05-19, 00:44:05,VALID,1001.15,VALID,0,VALID,93.1424,VALID,0,VALID,23.311,VALID,325,VALID,0.778125,
2011-05-19, 00:45:05,VALID,1001.14,VALID,0,VALID,93.15,VALID,0,VALID,23.2897,VALID,325,VALID,0.559766,
2011-05-19, 00:46:05,VALID,1001.14,VALID,0,VALID,93.1577,VALID,0.112286,VALID,23.3092,VALID,325,VALID,0.26875,
2011-05-19, 00:47:05,VALID,1001.12,VALID,0,VALID,93.1882,VALID,0,VALID,23.3092,VALID,325,VALID,0,
2011-05-19, 00:48:05,VALID,1001.1,VALID,0,VALID,93.1882,VALID,0,VALID,23.3287,VALID,325,VALID,0,
2011-05-19, 00:49:05,VALID,1001.08,VALID,0,VALID,93.2111,VALID,0,VALID,23.35,VALID,325,VALID,0,
2011-05-19, 00:50:05,VALID,1001.09,VALID,0,VALID,93.2416,VALID,0,VALID,23.35,VALID,325,VALID,0,
2011-05-19, 00:51:05,VALID,1001.11,VALID,0,VALID,93.2416,VALID,0,VALID,23.3482,VALID,325,VALID,0,
2011-05-19, 00:52:05,VALID,1001.12,VALID,0,VALID,93.2797,VALID,0,VALID,23.3695,VALID,325,VALID,0,
2011-05-19, 00:53:05,VALID,1001.11,VALID,0,VALID,93.2721,VALID,0,VALID,23.3482,VALID,325,VALID,0,
2011-05-19, 00:54:05,VALID,1001.1,VALID,0,VALID,93.295,VALID,0,VALID,23.389,VALID,325,VALID,0,
2011-05-19, 00:55:05,VALID,1001.06,VALID,0,VALID,93.3026,VALID,0,VALID,23.3677,VALID,325,VALID,0,
2011-05-19, 00:56:05,VALID,1001.07,VALID,0,VALID,93.3331,VALID,0,VALID,23.3872,VALID,325,VALID,0,
2011-05-19, 00:57:05,VALID,1001.01,VALID,0,VALID,93.3331,VALID,0,VALID,23.3872,VALID,325,VALID,0,
2011-05-19, 00:58:05,VALID,1001.02,VALID,0,VALID,93.3026,VALID,0,VALID,23.389,VALID,325,VALID,0,
2011-05-19, 00:59:05,VALID,1001,VALID,0,VALID,93.3179,VALID,0,VALID,23.3677,VALID,325,VALID,0,
2011-05-19, 01:00:05,VALID,1001.01,VALID,0,VALID,93.3255,VALID,0,VALID,23.3482,VALID,325,VALID,0,
2011-05-19, 01:01:05,VALID,1000.97,VALID,0,VALID,93.3331,VALID,0,VALID,23.389,VALID,325,VALID,0,
2011-05-19, 01:02:05,VALID,1000.98,VALID,0,VALID,93.3331,VALID,0,VALID,23.35,VALID,325,VALID,0,
2011-05-19, 01:03:05,VALID,1000.99,VALID,0,VALID,93.3408,VALID,0,VALID,23.3482,VALID,325,VALID,0,
2011-05-19, 01:04:05,VALID,1000.96,VALID,0,VALID,93.3331,VALID,0,VALID,23.3287,VALID,325,VALID,0,
2011-05-19, 01:05:05,VALID,1000.99,VALID,0,VALID,93.3331,VALID,0,VALID,23.3695,VALID,325,VALID,0,
2011-05-19, 01:06:05,VALID,1001,VALID,0,VALID,93.3331,VALID,0,VALID,23.35,VALID,325,VALID,0,
2011-05-19, 01:07:05,VALID,1001,VALID,0,VALID,93.3484,VALID,0.112286,VALID,23.3482,VALID,325,VALID,0,
2011-05-19, 01:08:05,VALID,1001.01,VALID,0,VALID,93.3789,VALID,0,VALID,23.3287,VALID,325,VALID,0,
2011-05-19, 01:09:05,VALID,1001.02,VALID,0,VALID,93.3484,VALID,0,VALID,23.3305,VALID,325,VALID,0,
2011-05-19, 01:10:05,VALID,1001.02,VALID,0,VALID,93.3408,VALID,0,VALID,23.3092,VALID,51,VALID,0,
2011-05-19, 01:11:05,VALID,1001.01,VALID,0,VALID,93.356,VALID,0,VALID,23.2915,VALID,51,VALID,0,
2011-05-19, 01:12:05,VALID,1001,VALID,0,VALID,93.3408,VALID,0.112286,VALID,23.2915,VALID,51,VALID,0,
2011-05-19, 01:13:05,VALID,1000.99,VALID,0,VALID,93.356,VALID,0,VALID,23.311,VALID,51,VALID,0,
2011-05-19, 01:14:05,VALID,1000.97,VALID,0,VALID,93.3331,VALID,0,VALID,23.2915,VALID,51,VALID,0,
2011-05-19, 01:15:05,VALID,1000.91,VALID,0,VALID,93.3179,VALID,0,VALID,23.311,VALID,51,VALID,0,
2011-05-19, 01:16:05,VALID,1000.9,VALID,0,VALID,93.3103,VALID,0.112286,VALID,23.2702,VALID,55,VALID,0,
2011-05-19, 01:17:05,VALID,1000.9,VALID,0,VALID,93.3026,VALID,0.112286,VALID,23.2702,VALID,58,VALID,0,
2011-05-19, 01:18:05,VALID,1000.92,VALID,0,VALID,93.2721,VALID,0,VALID,23.2507,VALID,70,VALID,0.616016,
2011-05-19, 01:19:05,VALID,1000.91,VALID,0,VALID,93.2568,VALID,0,VALID,23.2117,VALID,92,VALID,0.672656,
2011-05-19, 01:20:05,VALID,1000.92,VALID,0,VALID,93.2492,VALID,0.112286,VALID,23.2329,VALID,92,VALID,0.784766,
2011-05-19, 01:21:04,VALID,1000.91,VALID,0,VALID,93.2416,VALID,0,VALID,23.2134,VALID,92,VALID,0.705078,
2011-05-19, 01:22:04,VALID,1000.9,VALID,0,VALID,93.234,VALID,0.112286,VALID,23.1921,VALID,92,VALID,0.683594,
2011-05-19, 01:23:04,VALID,1000.95,VALID,0,VALID,93.2263,VALID,0,VALID,23.1531,VALID,92,VALID,0.485938,
2011-05-19, 01:24:04,VALID,1000.95,VALID,0,VALID,93.2111,VALID,0.112286,VALID,23.1336,VALID,92,VALID,0.117969,
2011-05-19, 01:25:04,VALID,1000.95,VALID,0,VALID,93.1805,VALID,0,VALID,23.1141,VALID,92,VALID,0,
2011-05-19, 01:26:04,VALID,1000.98,VALID,0,VALID,93.1805,VALID,0.112286,VALID,23.1159,VALID,92,VALID,0,
2011-05-19, 01:27:04,VALID,1000.97,VALID,0,VALID,93.1805,VALID,0,VALID,23.0946,VALID,92,VALID,0,
2011-05-19, 01:28:04,VALID,1000.95,VALID,0,VALID,93.1805,VALID,0,VALID,23.1159,VALID,92,VALID,0,
2011-05-19, 01:29:04,VALID,1000.94,VALID,0,VALID,93.1882,VALID,0.112286,VALID,23.1159,VALID,92,VALID,0,
2011-05-19, 01:30:04,VALID,1000.95,VALID,0,VALID,93.2034,VALID,0,VALID,23.0964,VALID,92,VALID,0,
2011-05-19, 01:31:04,VALID,1000.95,VALID,0,VALID,93.2111,VALID,0,VALID,23.0981,VALID,92,VALID,0,
2011-05-19, 01:32:04,VALID,1000.93,VALID,0,VALID,93.1958,VALID,0,VALID,23.0769,VALID,92,VALID,0,
2011-05-19, 01:33:04,VALID,1000.94,VALID,0,VALID,93.2111,VALID,0,VALID,23.0573,VALID,92,VALID,0,
2011-05-19, 01:34:04,VALID,1000.93,VALID,0,VALID,93.2187,VALID,0,VALID,23.0573,VALID,92,VALID,0,
2011-05-19, 01:35:04,VALID,1000.88,VALID,0,VALID,93.2492,VALID,0,VALID,23.0573,VALID,92,VALID,0,
2011-05-19, 01:36:04,VALID,1000.89,VALID,0,VALID,93.2645,VALID,0,VALID,23.0573,VALID,92,VALID,0,
2011-05-19, 01:37:04,VALID,1000.87,VALID,0,VALID,93.2721,VALID,0,VALID,23.0591,VALID,92,VALID,0,
2011-05-19, 01:38:04,VALID,1000.83,VALID,0,VALID,93.2645,VALID,0,VALID,23.0183,VALID,92,VALID,0,
2011-05-19, 01:39:04,VALID,1000.82,VALID,0,VALID,93.2797,VALID,0,VALID,23.0378,VALID,92,VALID,0,
2011-05-19, 01:40:04,VALID,1000.82,VALID,0,VALID,93.3179,VALID,0,VALID,23.0378,VALID,92,VALID,0,
2011-05-19, 01:41:04,VALID,1000.79,VALID,0,VALID,93.3026,VALID,0,VALID,23.0183,VALID,92,VALID,0,
2011-05-19, 01:42:04,VALID,1000.77,VALID,0,VALID,93.3179,VALID,0,VALID,22.9793,VALID,92,VALID,0,
2011-05-19, 01:43:04,VALID,1000.77,VALID,0,VALID,93.3331,VALID,0,VALID,22.9988,VALID,92,VALID,0,
2011-05-19, 01:44:04,VALID,1000.75,VALID,0,VALID,93.356,VALID,0,VALID,23.0166,VALID,92,VALID,0,
2011-05-19, 01:45:04,VALID,1000.72,VALID,0,VALID,93.3866,VALID,0,VALID,23.0378,VALID,92,VALID,0,
2011-05-19, 01:46:04,VALID,1000.72,VALID,0,VALID,93.3789,VALID,0,VALID,23.0183,VALID,92,VALID,0,
2011-05-19, 01:47:04,VALID,1000.71,VALID,0,VALID,93.4018,VALID,0,VALID,22.9988,VALID,92,VALID,0,
2011-05-19, 01:48:04,VALID,1000.73,VALID,0,VALID,93.4018,VALID,0,VALID,22.9793,VALID,34,VALID,0.428516,
2011-05-19, 01:49:04,VALID,1000.7,VALID,0,VALID,93.4094,VALID,0,VALID,22.9811,VALID,28,VALID,0.985547,
2011-05-19, 01:50:04,VALID,1000.69,VALID,0,VALID,93.44,VALID,0,VALID,22.9598,VALID,24,VALID,0.977344,
2011-05-19, 01:51:04,VALID,1000.69,VALID,0,VALID,93.4552,VALID,0,VALID,22.9793,VALID,24,VALID,0.964844,
2011-05-19, 01:52:04,VALID,1000.68,VALID,0,VALID,93.4628,VALID,0,VALID,22.9598,VALID,24,VALID,0.945703,
2011-05-19, 01:53:04,VALID,1000.66,VALID,0,VALID,93.4781,VALID,0,VALID,22.9598,VALID,24,VALID,0.741016,
2011-05-19, 01:54:04,VALID,1000.64,VALID,0,VALID,93.4705,VALID,0,VALID,22.9403,VALID,24,VALID,0.614453,
2011-05-19, 01:55:04,VALID,1000.62,VALID,0,VALID,93.4857,VALID,0,VALID,22.9403,VALID,24,VALID,0.589844,
2011-05-19, 01:56:04,VALID,1000.58,VALID,0,VALID,93.5086,VALID,0,VALID,22.9598,VALID,24,VALID,0.532422,
2011-05-19, 01:57:04,VALID,1000.59,VALID,0,VALID,93.5315,VALID,0,VALID,22.9208,VALID,24,VALID,0.555078,
2011-05-19, 01:58:04,VALID,1000.57,VALID,0,VALID,93.5239,VALID,0,VALID,22.9208,VALID,24,VALID,0.415625,
2011-05-19, 01:59:04,VALID,1000.57,VALID,0,VALID,93.5239,VALID,0,VALID,22.9013,VALID,24,VALID,0,
2011-05-19, 02:00:04,VALID,1000.57,VALID,0,VALID,93.5544,VALID,0,VALID,22.9013,VALID,24,VALID,0,
2011-05-19, 02:01:04,VALID,1000.55,VALID,0,VALID,93.5468,VALID,0,VALID,22.8818,VALID,24,VALID,0,
2011-05-19, 02:02:04,VALID,1000.5,VALID,0,VALID,93.5468,VALID,0,VALID,22.8818,VALID,103,VALID,0,
2011-05-19, 02:03:04,VALID,1000.51,VALID,0,VALID,93.5544,VALID,0,VALID,22.8818,VALID,103,VALID,0,
2011-05-19, 02:04:04,VALID,1000.47,VALID,0,VALID,93.562,VALID,0,VALID,22.8623,VALID,103,VALID,0,
2011-05-19, 02:05:04,VALID,1000.45,VALID,0,VALID,93.5544,VALID,0,VALID,22.864,VALID,103,VALID,0,
2011-05-19, 02:06:04,VALID,1000.47,VALID,0,VALID,93.5697,VALID,0,VALID,22.8232,VALID,103,VALID,0,
2011-05-19, 02:07:04,VALID,1000.45,VALID,0,VALID,93.5849,VALID,0,VALID,22.8232,VALID,103,VALID,0.896484,
2011-05-19, 02:08:04,VALID,1000.4,VALID,0,VALID,93.6002,VALID,0,VALID,22.8445,VALID,103,VALID,0.616016,
2011-05-19, 02:09:04,VALID,1000.4,VALID,0,VALID,93.5926,VALID,0,VALID,22.8427,VALID,103,VALID,0.413281,
2011-05-19, 02:10:04,VALID,1000.41,VALID,0,VALID,93.6154,VALID,0,VALID,22.8835,VALID,103,VALID,0,
2011-05-19, 02:11:04,VALID,1000.44,VALID,0,VALID,93.6002,VALID,0,VALID,22.8818,VALID,103,VALID,0,
2011-05-19, 02:12:04,VALID,1000.43,VALID,0,VALID,93.6154,VALID,0,VALID,22.8818,VALID,103,VALID,0,
2011-05-19, 02:13:04,VALID,1000.42,VALID,0,VALID,93.6078,VALID,0,VALID,22.903,VALID,103,VALID,0,
2011-05-19, 02:14:04,VALID,1000.45,VALID,0,VALID,93.6307,VALID,0,VALID,22.8835,VALID,103,VALID,0,
2011-05-19, 02:15:04,VALID,1000.47,VALID,0,VALID,93.6307,VALID,0,VALID,22.8818,VALID,98,VALID,0.564062,
2011-05-19, 02:16:04,VALID,1000.48,VALID,0,VALID,93.6383,VALID,0,VALID,22.9013,VALID,66,VALID,0.675391,
2011-05-19, 02:17:04,VALID,1000.46,VALID,0,VALID,93.6612,VALID,0,VALID,22.9013,VALID,58,VALID,0.744141,
2011-05-19, 02:18:04,VALID,1000.5,VALID,0,VALID,93.6612,VALID,0,VALID,22.9013,VALID,58,VALID,0.772656,
2011-05-19, 02:19:04,VALID,1000.47,VALID,0,VALID,93.6383,VALID,0,VALID,22.8818,VALID,50,VALID,0.532031,
2011-05-19, 02:20:04,VALID,1000.49,VALID,0,VALID,93.6307,VALID,0,VALID,22.864,VALID,33,VALID,0.798437,
2011-05-19, 02:21:04,VALID,1000.48,VALID,0,VALID,93.6612,VALID,0,VALID,22.7842,VALID,32,VALID,0.726953,
2011-05-19, 02:22:04,VALID,1000.5,VALID,0,VALID,93.646,VALID,0,VALID,22.7647,VALID,32,VALID,0.524219,
2011-05-19, 02:23:04,VALID,1000.5,VALID,0,VALID,93.6383,VALID,0,VALID,22.7257,VALID,32,VALID,0.430859,
2011-05-19, 02:24:04,VALID,1000.48,VALID,0,VALID,93.6307,VALID,0,VALID,22.6867,VALID,32,VALID,0.268359,
2011-05-19, 02:25:04,VALID,1000.47,VALID,0,VALID,93.6307,VALID,0,VALID,22.6867,VALID,32,VALID,0.629687,
2011-05-19, 02:26:04,VALID,1000.48,VALID,0,VALID,93.5926,VALID,0,VALID,22.6867,VALID,32,VALID,0.668359,
2011-05-19, 02:27:04,VALID,1000.49,VALID,0,VALID,93.646,VALID,0,VALID,22.6867,VALID,32,VALID,0.716406,
2011-05-19, 02:28:04,VALID,1000.47,VALID,0,VALID,93.6307,VALID,0,VALID,22.6867,VALID,32,VALID,0.526172,
2011-05-19, 02:29:04,VALID,1000.45,VALID,0,VALID,93.6383,VALID,0,VALID,22.6867,VALID,32,VALID,0.567969,
2011-05-19, 02:30:04,VALID,1000.43,VALID,0,VALID,93.6231,VALID,0,VALID,22.6672,VALID,32,VALID,0.605469,
2011-05-19, 02:31:04,VALID,1000.45,VALID,0,VALID,93.6536,VALID,0,VALID,22.6672,VALID,32,VALID,0.533594,
2011-05-19, 02:32:04,VALID,1000.44,VALID,0,VALID,93.6307,VALID,0,VALID,22.6672,VALID,32,VALID,0.301953,
2011-05-19, 02:33:04,VALID,1000.45,VALID,0,VALID,93.6307,VALID,0,VALID,22.6672,VALID,32,VALID,0.0964844,
2011-05-19, 02:34:04,VALID,1000.49,VALID,0,VALID,93.6231,VALID,0,VALID,22.6672,VALID,32,VALID,0,
2011-05-19, 02:35:04,VALID,1000.54,VALID,0,VALID,93.646,VALID,0,VALID,22.6672,VALID,32,VALID,0,
2011-05-19, 02:36:04,VALID,1000.53,VALID,0,VALID,93.6383,VALID,0,VALID,22.7062,VALID,32,VALID,0,
2011-05-19, 02:37:04,VALID,1000.57,VALID,0,VALID,93.6536,VALID,0,VALID,22.7062,VALID,32,VALID,0,
2011-05-19, 02:38:04,VALID,1000.58,VALID,0,VALID,93.646,VALID,0,VALID,22.6867,VALID,40,VALID,0.994141,
2011-05-19, 02:39:04,VALID,1000.6,VALID,0,VALID,93.6688,VALID,0,VALID,22.6672,VALID,42,VALID,1.13164,
2011-05-19, 02:40:04,VALID,1000.61,VALID,0,VALID,93.6307,VALID,0,VALID,22.7274,VALID,42,VALID,1.09102,
2011-05-19, 02:41:04,VALID,1000.62,VALID,0,VALID,93.6612,VALID,0,VALID,22.7257,VALID,42,VALID,0.854297,
2011-05-19, 02:42:04,VALID,1000.59,VALID,0,VALID,93.6688,VALID,0,VALID,22.7452,VALID,42,VALID,0.867969,
2011-05-19, 02:43:04,VALID,1000.57,VALID,0,VALID,93.646,VALID,0,VALID,22.7647,VALID,42,VALID,0.739844,
2011-05-19, 02:44:04,VALID,1000.6,VALID,0,VALID,93.646,VALID,0,VALID,22.8055,VALID,42,VALID,0.476563,
2011-05-19, 02:45:04,VALID,1000.59,VALID,0,VALID,93.6231,VALID,0,VALID,22.7842,VALID,42,VALID,0.205859,
2011-05-19, 02:46:04,VALID,1000.6,VALID,0,VALID,93.6307,VALID,0,VALID,22.7647,VALID,42,VALID,0,
2011-05-19, 02:47:04,VALID,1000.57,VALID,0,VALID,93.6154,VALID,0,VALID,22.7452,VALID,42,VALID,0,
2011-05-19, 02:48:04,VALID,1000.54,VALID,0,VALID,93.6002,VALID,0,VALID,22.7257,VALID,42,VALID,0.202734,
2011-05-19, 02:49:04,VALID,1000.52,VALID,0,VALID,93.6078,VALID,0,VALID,22.7452,VALID,42,VALID,0.430859,
2011-05-19, 02:50:04,VALID,1000.51,VALID,0,VALID,93.6231,VALID,0,VALID,22.8055,VALID,42,VALID,0.424219,
2011-05-19, 02:51:04,VALID,1000.53,VALID,0,VALID,93.6307,VALID,0,VALID,22.825,VALID,42,VALID,0,
2011-05-19, 02:52:04,VALID,1000.52,VALID,0,VALID,93.6002,VALID,0,VALID,22.7842,VALID,42,VALID,0,
2011-05-19, 02:53:04,VALID,1000.49,VALID,0,VALID,93.5849,VALID,0,VALID,22.825,VALID,42,VALID,0,
2011-05-19, 02:54:04,VALID,1000.53,VALID,0,VALID,93.5849,VALID,0,VALID,22.8037,VALID,42,VALID,0,
2011-05-19, 02:55:04,VALID,1000.5,VALID,0,VALID,93.5926,VALID,0,VALID,22.8037,VALID,42,VALID,0,
2011-05-19, 02:56:04,VALID,1000.5,VALID,0,VALID,93.5697,VALID,0,VALID,22.8037,VALID,42,VALID,0,
2011-05-19, 02:57:04,VALID,1000.52,VALID,0,VALID,93.5697,VALID,0,VALID,22.8232,VALID,42,VALID,0,
2011-05-19, 02:58:04,VALID,1000.51,VALID,0,VALID,93.5773,VALID,0,VALID,22.8232,VALID,42,VALID,0,
2011-05-19, 02:59:04,VALID,1000.52,VALID,0,VALID,93.5544,VALID,0,VALID,22.8445,VALID,132,VALID,0.875781,
2011-05-19, 03:00:04,VALID,1000.52,VALID,0,VALID,93.5391,VALID,0,VALID,22.8835,VALID,134,VALID,1.0332,
2011-05-19, 03:01:04,VALID,1000.51,VALID,0,VALID,93.5239,VALID,0,VALID,22.8623,VALID,150,VALID,0.876953,
2011-05-19, 03:02:04,VALID,1000.52,VALID,0,VALID,93.5163,VALID,0,VALID,22.9208,VALID,150,VALID,0.757422,
2011-05-19, 03:03:04,VALID,1000.52,VALID,0,VALID,93.5163,VALID,0,VALID,22.9013,VALID,150,VALID,0.720312,
2011-05-19, 03:04:04,VALID,1000.52,VALID,0,VALID,93.4857,VALID,0,VALID,22.9403,VALID,150,VALID,0.892969,
2011-05-19, 03:05:04,VALID,1000.51,VALID,0,VALID,93.4628,VALID,0,VALID,22.9403,VALID,139,VALID,0.888281,
2011-05-19, 03:06:04,VALID,1000.52,VALID,0,VALID,93.4171,VALID,0,VALID,22.9598,VALID,139,VALID,0.643359,
2011-05-19, 03:07:04,VALID,1000.52,VALID,0,VALID,93.3942,VALID,0,VALID,22.9811,VALID,139,VALID,0.742578,
2011-05-19, 03:08:04,VALID,1000.55,VALID,0,VALID,93.356,VALID,0,VALID,22.9811,VALID,139,VALID,1.02305,
2011-05-19, 03:09:04,VALID,1000.55,VALID,0,VALID,93.3179,VALID,0,VALID,22.9811,VALID,139,VALID,1.06367,
2011-05-19, 03:10:04,VALID,1000.59,VALID,0,VALID,93.3026,VALID,0,VALID,22.9811,VALID,139,VALID,0.9125,
2011-05-19, 03:11:04,VALID,1000.53,VALID,0,VALID,93.2416,VALID,0,VALID,22.9208,VALID,139,VALID,0.587891,
2011-05-19, 03:12:04,VALID,1000.58,VALID,0,VALID,93.1729,VALID,0,VALID,22.9208,VALID,138,VALID,0.625,
2011-05-19, 03:13:04,VALID,1000.58,VALID,0,VALID,93.1424,VALID,0,VALID,22.8818,VALID,138,VALID,0.314453,
2011-05-19, 03:14:04,VALID,1000.57,VALID,0,VALID,93.0814,VALID,0,VALID,22.8818,VALID,138,VALID,0.0398437,
2011-05-19, 03:15:04,VALID,1000.59,VALID,0,VALID,93.028,VALID,0,VALID,22.864,VALID,139,VALID,0.493359,
2011-05-19, 03:16:04,VALID,1000.6,VALID,0,VALID,92.9822,VALID,0,VALID,22.8232,VALID,148,VALID,0.751562,
2011-05-19, 03:17:04,VALID,1000.59,VALID,0,VALID,92.9593,VALID,0,VALID,22.8232,VALID,148,VALID,0.751953,
2011-05-19, 03:18:04,VALID,1000.61,VALID,0,VALID,92.9059,VALID,0,VALID,22.864,VALID,148,VALID,0.411719,
2011-05-19, 03:19:04,VALID,1000.6,VALID,0,VALID,92.8677,VALID,0,VALID,22.8427,VALID,148,VALID,0.00859375,
2011-05-19, 03:20:04,VALID,1000.61,VALID,0,VALID,92.8372,VALID,0,VALID,22.864,VALID,148,VALID,0,
2011-05-19, 03:21:04,VALID,1000.61,VALID,0,VALID,92.8067,VALID,0,VALID,22.8232,VALID,148,VALID,0,
2011-05-19, 03:22:04,VALID,1000.57,VALID,0,VALID,92.7685,VALID,0,VALID,22.7842,VALID,148,VALID,0,
2011-05-19, 03:23:04,VALID,1000.61,VALID,0,VALID,92.7304,VALID,0,VALID,22.825,VALID,148,VALID,0,
2011-05-19, 03:24:04,VALID,1000.61,VALID,0,VALID,92.738,VALID,0,VALID,22.8055,VALID,148,VALID,0,
2011-05-19, 03:25:04,VALID,1000.58,VALID,0,VALID,92.6923,VALID,0,VALID,22.7647,VALID,148,VALID,0,
2011-05-19, 03:26:04,VALID,1000.56,VALID,0,VALID,92.6694,VALID,0,VALID,22.7664,VALID,148,VALID,0,
2011-05-19, 03:27:04,VALID,1000.56,VALID,0,VALID,92.6465,VALID,0,VALID,22.7469,VALID,148,VALID,0,
2011-05-19, 03:28:04,VALID,1000.57,VALID,0,VALID,92.6617,VALID,0,VALID,22.7257,VALID,147,VALID,0.488281,
2011-05-19, 03:29:04,VALID,1000.59,VALID,0,VALID,92.6541,VALID,0,VALID,22.7062,VALID,147,VALID,0.335156,
2011-05-19, 03:30:04,VALID,1000.57,VALID,0,VALID,92.6617,VALID,0,VALID,22.7274,VALID,147,VALID,0,
2011-05-19, 03:31:04,VALID,1000.58,VALID,0,VALID,92.6617,VALID,0,VALID,22.7062,VALID,147,VALID,0,
2011-05-19, 03:32:04,VALID,1000.58,VALID,0,VALID,92.6999,VALID,0.112286,VALID,22.7257,VALID,147,VALID,0,
2011-05-19, 03:33:04,VALID,1000.58,VALID,0,VALID,92.7228,VALID,0,VALID,22.7257,VALID,147,VALID,0,
2011-05-19, 03:34:04,VALID,1000.58,VALID,0,VALID,92.738,VALID,0,VALID,22.7647,VALID,147,VALID,0,
2011-05-19, 03:35:04,VALID,1000.59,VALID,0,VALID,92.7762,VALID,0.112286,VALID,22.7842,VALID,147,VALID,0,
2011-05-19, 03:36:04,VALID,1000.58,VALID,0,VALID,92.7838,VALID,0,VALID,22.7842,VALID,147,VALID,0,
2011-05-19, 03:37:04,VALID,1000.6,VALID,0,VALID,92.8067,VALID,0,VALID,22.7842,VALID,147,VALID,0,
2011-05-19, 03:38:04,VALID,1000.58,VALID,0,VALID,92.7991,VALID,0,VALID,22.7842,VALID,147,VALID,0,
2011-05-19, 03:39:04,VALID,1000.61,VALID,0,VALID,92.8296,VALID,0.112286,VALID,22.8037,VALID,147,VALID,0,
2011-05-19, 03:40:04,VALID,1000.59,VALID,0,VALID,92.8296,VALID,0,VALID,22.7842,VALID,147,VALID,0,
2011-05-19, 03:41:04,VALID,1000.62,VALID,0,VALID,92.8448,VALID,0.112286,VALID,22.7842,VALID,147,VALID,0,
2011-05-19, 03:42:04,VALID,1000.63,VALID,0,VALID,92.8754,VALID,0.112286,VALID,22.763,VALID,147,VALID,0,
2011-05-19, 03:43:04,VALID,1000.69,VALID,0,VALID,92.8906,VALID,0.112286,VALID,22.8037,VALID,147,VALID,0,
2011-05-19, 03:44:04,VALID,1000.67,VALID,0,VALID,92.8601,VALID,0,VALID,22.724,VALID,147,VALID,0,
2011-05-19, 03:45:04,VALID,1000.67,VALID,0.5,VALID,92.822,VALID,0,VALID,22.6672,VALID,147,VALID,0,
2011-05-19, 03:46:04,VALID,1000.65,VALID,0,VALID,92.8143,VALID,0,VALID,22.6282,VALID,147,VALID,0,
2011-05-19, 03:47:04,VALID,1000.67,VALID,0,VALID,92.7991,VALID,0,VALID,22.6087,VALID,147,VALID,0,
2011-05-19, 03:48:04,VALID,1000.66,VALID,0,VALID,92.8372,VALID,0,VALID,22.6087,VALID,147,VALID,0,
2011-05-19, 03:49:04,VALID,1000.68,VALID,0,VALID,92.8525,VALID,0,VALID,22.6104,VALID,147,VALID,0,
2011-05-19, 03:50:04,VALID,1000.67,VALID,0,VALID,92.8983,VALID,0,VALID,22.6299,VALID,147,VALID,0,
2011-05-19, 03:51:04,VALID,1000.67,VALID,0,VALID,92.8983,VALID,0,VALID,22.5696,VALID,147,VALID,0,
2011-05-19, 03:52:04,VALID,1000.69,VALID,0,VALID,92.9211,VALID,0,VALID,22.5501,VALID,147,VALID,0,
2011-05-19, 03:53:04,VALID,1000.67,VALID,0,VALID,92.9669,VALID,0,VALID,22.5909,VALID,147,VALID,0,